weather.gov     
National Weather Service

Regional Weather Roundup
NWS Homepage
This page is being discontinued on March 12, 2014.
The same data is available at this site. Please update your bookmarks.
Thank you, and we apologize for the inconvenience.
Please send an email to SR-SRH.Webmaster@noaa.gov with any concerns.


Current Version
Previous Version:    01  02  03  04  05  06  07  08  09  10  11  12  13  14  15  16  17  18  19  20  21  22  23  24  25  26  27  28  29  30  
   31  32  33  34  35  36  37  38  39  40  41  42  43  44  45  46  47  48  49  50  51  52  53  
[Printable]
550
ASUS46 KSGX 201810
RWRSGX

SAN DIEGO HOURLY WEATHER ROUNDUP
NATIONAL WEATHER SERVICE SAN DIEGO CA
1100 AM PDT SUN APR 20 2014

NOTE: "FAIR" INDICATES FEW OR NO CLOUDS BELOW 12,000 FEET WITH NO
SIGNIFICANT WEATHER AND/OR OBSTRUCTIONS TO VISIBILITY.

CAZ042-043-060-061-PZZ750-775-201900-

GREATER SAN DIEGO AREA

CITY           SKY/WX    TMP DP  RH WIND       PRES   REMARKS
LINDBERGH FLD  MOSUNNY   65  55  70 SW7       30.08S
NATIONAL CITY    N/A     65  58  76 SW6       30.08R
CHULA VISTA      N/A     66  60  81 W7        30.01R
IMPERIAL BEACH CLOUDY    63  56  78 SW8       30.08S
BROWN FIELD    SUNNY     68  56  65 VRB5      30.06S
MIRAMAR MCAS   MOSUNNY   71  54  54 W6        30.04S
MONTGOMERY FLD SUNNY     68  56  65 VRB5      30.06S

$$

NORTH SAN DIEGO COUNTY

CITY           SKY/WX    TMP DP  RH WIND       PRES   REMARKS
CAMP PENDLETON SUNNY     69  54  58 SW8       30.05S
RED BEACH      FAIR      66  55  67 W9        30.07R HAZE
OCEANSIDE AP   SUNNY     66  56  70 W7        30.06R
VISTA            N/A     69  58  68 W1        30.04S
CARLSBAD       SUNNY     64  55  72 SW7       30.06R
DEL MAR          N/A     63  58  83 CALM      30.09R
FALLBROOK        N/A     71  60  67 CALM      30.04S
ESCONDIDO        N/A     76  58  54 W7        30.06S
SAN MARCOS       N/A     71  59  65 NW3       30.04S
POWAY            N/A     73  58  59 CALM      30.07S
R. PENASQUITOS   N/A     70  58  65 CALM      30.07S

$$

EAST SAN DIEGO COUNTY

CITY           SKY/WX    TMP DP  RH WIND       PRES   REMARKS
RAMONA         SUNNY     73  54  51 NW9       30.06S
SANTEE LAKES     N/A     72  59  62 CALM      30.07S
GILLESPIE FLD  FAIR      75  54  46 W3        30.07S
LA MESA          N/A     69  59  70 N5        30.01R
JAMUL            N/A     71  59  65 CALM      30.05S
DESCANSO N       N/A     75  44  33 W1        29.96R
MT. LAGUNA OBS   N/A     63  35  35 CALM      29.77
CAMPO            N/A     80  38  22 S6        30.04F

$$

ORANGE COUNTY AND THE LOS ANGELES BASIN

CITY           SKY/WX    TMP DP  RH WIND       PRES   REMARKS
JOHN WAYNE AP  MOSUNNY   69  55  60 W5        30.07S
LAGUNA BEACH     N/A     64  58  81 S5        30.05S
LAKE FOREST FR   N/A     70  53  55 CALM      29.96S
SANTA ANA        N/A     71  60  67 CALM      30.02S
LOS ALAMITOS   SUNNY     68  57  67 S5        30.07S
FULLERTON      SUNNY     70  56  61 VRB3      30.06S
LONG BEACH     SUNNY     66  54  65 SW5       30.07R
L.A. AP        SUNNY     68  56  65 W8        30.08R
L.A. DOWNTOWN  SUNNY     71  55  56 CALM      30.06S

$$

THE INLAND EMPIRE

CITY           SKY/WX    TMP DP  RH WIND       PRES   REMARKS
CORONA         SUNNY     73  53  49 W7        30.06S
CHINO          SUNNY     73  52  47 W5        30.07S
ONTARIO        MOSUNNY   73  51  46 VRB5      30.06S
SAN BERNARDINO SUNNY     73  45  35 W6        30.06S
RIVERSIDE AP   SUNNY     73  52  47 CALM      30.06R
RIV CYN CREST    N/A     72  62  68 NW5       30.04R
MORENO VALLEY    N/A     76  56  50 SW3       28.17S
MARCH ARB      MOSUNNY   75  50  41 VRB3      30.06S
HORSETHIEF CYN   N/A     75  48  37 NW6       30.05S
PERRIS           N/A     75  53  45 SE3         N/A
MENIFEE          N/A     76  55  48 CALM      30.12S
HEMET EAST       N/A     75  44  33 CALM      30.04S
FRENCH VALLEY  NOT AVBL
TEMECULA         N/A     71  56  59 CALM      30.02F

$$

SAN BERNARDINO AND RIVERSIDE COUNTY MOUNTAINS

CITY           SKY/WX    TMP DP  RH WIND       PRES   REMARKS
BIG BEAR AP    SUNNY     61  25  25 W8        30.27S
BIG BEAR SHEA    N/A     63  21  20 N3        30.09R
ANGELUS OAKS     N/A     65  37  35 CALM      30.40R
PINE COVE        N/A     67  35  30 W3        30.07R

$$

SOUTHERN DESERT INCLUDING THE COACHELLA VALLEY

CITY           SKY/WX    TMP DP  RH WIND       PRES   REMARKS
PALM SPRINGS   MOSUNNY   82  45  27 SE6       30.02S
THOUSAND PALMS   N/A     81  48  31 NW1       29.99S
PALM DESERT      N/A     85  52  31 CALM      29.90S
THERMAL        SUNNY     85  50  29 VRB3      29.98F
BLYTHE         SUNNY     84  44  24 VRB3      30.01S
IMPERIAL AP    SUNNY     84  54  35 E3        29.99S
EL CENTRO NAS  SUNNY     84  51  31 NE5       29.99S
YUMA AZ        SUNNY     87  36  16 VRB5      30.01S
MEXICALI       SUNNY     82  45  26 CALM      30.01

$$

UPPER DESERT

CITY           SKY/WX    TMP DP  RH WIND       PRES   REMARKS
VICTORVILLE AP MOSUNNY   73  32  21 NW3       30.10S
HESPERIA         N/A     74  39  28 CALM      30.14S
GRAY BUTTE AP  NOT AVBL
PALMDALE       SUNNY     76  28  17 NW7       30.09S
LANCASTER      SUNNY     77  27  15 VRB3      30.08S
EDWARDS AFB    MOSUNNY   73  31  21 N2        30.07S
DAGGETT        SUNNY     78  31  17 NW9       30.06R
29 PALMS N     SUNNY     78  36  21 CALM      30.13S
NEEDLES        SUNNY     87  39  18 VRB3      30.01S

$$

REGIONAL REPORTS

CITY           SKY/WX    TMP DP  RH WIND       PRES   REMARKS
SANTA BARBARA  SUNNY     63  54  72 S7        30.07S
SANDBERG       SUNNY     69  26  20 N13       30.18R
MT. WILSON       N/A     70  41  35 MISG        N/A
LAS VEGAS NV   MOSUNNY   81  35  19 W3        30.01S
PHOENIX AZ     MOSUNNY   82  43  25 CALM      30.04S
TIJUANA        SUNNY     68  54  60 N5        30.09R

$$

OFFSHORE ISLANDS

CITY           SKY/WX    TMP DP  RH WIND       PRES   REMARKS
CATALINA ARPT  SUNNY     64  54  69 W8        30.10R
SAN NICOLAS IS MOSUNNY   62  54  74 N6        30.08R

$$

MARINE AND OFFSHORE BUOY REPORTS

STATION/POSITION SKY/WX   TEMP    WIND        PRES    SWELL
                          AIR SEA DIR/SP/G            HT/PER/DIR
                          (F)     (DEG/KT/KT) (MB)    (FT/S/D)
S CLEMENTE BASIN           59 62  240/  6/  8 1018.7R   5/260/15
SAN NICOLAS IS.               59                N/A     5/290/13
SO. S. ROSA ISLA           55 58  300/ 10/ 12 1019.0R   7/14
W. S. BARBARA CH           54 54  330/ 10/ 12 1019.0R   7/290/13
S. MONICA BASIN            61 61  140/  4/  6 1018.5R   3/170/16
S PEDRO CHANNEL               60                N/A     2/230/14
DANA POINT                    61                N/A     3/180/17
CMP PENDLETON NS              62                N/A     2/210/17
OCEANSIDE OFFSHR              62                N/A     3/190/15
TORREY PINES OTR              63                N/A     2/250/14
LA JOLLA 1                 62 62  270/  4/  5 1018.4R
MISSION BAY BUOY              62                N/A     2/270/17
SAN DIEGO BAY                 65              1018.5S
POINT LOMA SOUTH              63                N/A     3/170/17

$$





U.S. Dept. of Commerce
NOAA National Weather Service
1325 East West Highway
Silver Spring, MD 20910
E-mail: w-nws.webmaster@noaa.gov
Page last modified: May 16, 2007
NATIONAL WEATHER SERVICE: for Safety, for Work, for Fun - FOR LIFE